#timestamp,LO_Frequency,Hit,StdDev 
1629187215.3,286046997.6,N
1629187235.2,286046997.6,N
1629187255.0,286046997.5,N
1629187255.9,286046997.5,N
1629187275.7,286046995.1,Y
1629187295.6,286046996.1,P
1629187315.4,286046993.4,P
1629187335.3,286046995.4,N
1629187355.1,286046995.7,N
1629187356.0,286046995.7,N
1629187375.8,286046995.5,N
1629187395.7,286046993.4,Y
1629187415.5,286047001.1,P
1629187435.4,286046998.7,N
1629187455.2,286046998.3,N
1629187475.0,286046999.1,N
1629187475.9,286046999.1,N
1629187495.8,286046996.8,N
1629187515.6,286046999.1,N
1629187535.4,286046999.3,N
1629187555.3,286046998.1,N
1629187575.1,286047001.0,N
1629187595.9,286047000.2,N
1629187615.7,286047002.2,N
1629187635.5,286047002.2,N
1629187655.4,286047000.5,N
1629187675.2,286047001.9,N
1629187695.0,286046999.8,N
1629187695.9,286046999.8,N
1629187715.8,286047000.2,N
1629187735.6,286047000.9,N
1629187755.4,286047002.6,N
1629187775.3,286047001.3,N
1629187795.1,286047001.4,N
1629187815.9,286047001.4,N
1629187835.7,286047001.8,N
1629187855.5,286047003.9,N
1629187875.4,286047003.8,N
1629187895.2,286047004.3,N
1629187915.1,286047001.3,N
1629187916.0,286047001.3,N
1629187935.8,286047003.5,N
1629187955.6,286047003.2,N
1629187975.5,286047005.3,N
1629187995.3,286047006.0,Y
1629188015.2,286047003.9,P
1629188035.9,286047004.2,N
1629188055.7,286047003.4,N
1629188075.6,286047005.3,Y
1629188095.4,286046999.7,P
1629188115.2,286046999.8,N
1629188135.1,286047000.7,N
1629188136.0,286047000.7,N
1629188155.8,286047000.9,N
1629188175.7,286047000.3,N
1629188195.5,286047000.9,N
1629188215.3,286046999.3,N
1629188235.2,286046998.8,N
1629188255.0,286046998.8,N
1629188255.9,286046998.8,N
1629188275.7,286046999.0,N
1629188295.6,286046998.5,N
1629188315.4,286047001.0,N
1629188335.3,286047002.7,N
1629188355.1,286047000.0,N
1629188375.8,286047000.7,N
1629188395.7,286046999.3,N
1629188415.5,286046997.5,N
1629188435.4,286046999.6,N
1629188455.2,286046997.1,N
1629188475.0,286046999.6,N
1629188475.9,286046999.6,N
1629188495.8,286046997.4,N
1629188515.6,286046995.0,Y
1629188535.5,286046996.6,P
1629188555.3,286046999.1,N
1629188605.2,286046998.8,E
1629188615.1,286047001.2,N
1629188616.0,286047001.2,P
1629188635.8,286047000.2,P
1629188655.6,286046999.7,N
1629188675.5,286047002.7,Y
1629188695.3,286046999.7,P
1629188715.2,286047000.2,N
1629188735.9,286047000.0,N
1629188755.7,286047002.8,Y
1629188775.6,286047000.6,P
1629188795.4,286047002.8,P
1629188815.3,286047001.9,N
1629188835.1,286047001.5,N
1629188855.8,286047001.6,N
1629188875.7,286047002.6,N
1629188895.5,286047002.6,N
1629188915.4,286047002.7,N
1629188935.2,286047001.7,N
1629188955.0,286047001.6,N
1629188955.9,286047001.6,N
1629188975.8,286047001.9,N
1629188995.6,286047001.6,N
1629189015.4,286047001.7,N
1629189035.3,286047002.6,Y
1629189055.1,286047001.0,P
1629189075.9,286047000.5,N
1629189095.7,286046998.2,P
1629189115.5,286047001.0,N
1629189135.4,286046999.0,N
1629189155.2,286046999.0,N
1629189175.0,286046997.6,N
1629189175.9,286046997.6,N
1629189225.8,286046995.9,E
1629189235.7,286046997.7,N
1629189255.6,286047000.4,P
1629189275.4,286047000.6,N
1629189295.2,286047001.2,N
1629189315.1,286046998.4,N
1629189316.0,286046998.4,N
1629189335.8,286047000.2,N
1629189355.7,286046999.9,N
1629189375.5,286047000.8,N
1629189395.3,286046998.4,N
1629189415.2,286046999.0,N
1629189435.9,286046998.8,N
1629189455.7,286046999.0,N
1629189475.6,286046998.1,N
1629189495.4,286046999.3,N
1629189515.2,286046999.0,N
1629189535.1,286046998.9,N
1629189536.0,286046998.9,N
1629189555.8,286046999.6,N
1629189575.7,286046998.4,N
1629189595.5,286046998.6,N
1629189615.3,286046998.2,N
1629189635.2,286047011.9,Y
1629189655.0,286047002.3,P
1629189655.9,286047002.3,N
1629189675.8,286046999.7,N
1629189695.6,286047002.1,N
1629189715.4,286047001.6,N
1629189735.3,286047002.1,N
1629189755.1,286047001.9,N
1629189775.8,286047001.4,N
1629189795.6,286047003.8,Y
1629189815.5,286047001.3,P
1629189835.3,286047004.2,P
1629189855.1,286047001.7,N
1629189875.9,286047001.4,N
1629189895.7,286047004.3,Y
1629189915.6,286047000.6,P
1629189935.4,286046999.7,N
1629189955.2,286046999.7,N
1629189975.1,286047002.7,N
1629189976.0,286047002.7,N
1629189995.8,286047002.4,N
1629190015.7,286047002.4,N
1629190035.5,286047002.3,N
1629190055.3,286047004.0,Y
1629190075.2,286047001.3,P
1629190095.0,286046999.8,N
1629190095.9,286046999.8,N
1629190115.7,286047001.4,N
1629190135.6,286047003.5,Y
1629190155.4,286047002.2,P
1629190175.3,286047002.6,P
1629190195.1,286047001.8,N
1629190196.0,286047001.8,N
1629190215.8,286047003.9,Y
1629190235.7,286047001.9,P
1629190255.5,286047004.3,P
1629190275.3,286047001.8,N
1629190295.2,286047004.1,Y
1629190315.0,286047002.7,P
1629190315.9,286047002.7,P
1629190335.8,286047002.3,P
1629190355.6,286047002.5,Y
1629190375.4,286046998.3,P
1629190395.3,286046998.6,N
1629190415.1,286047001.2,N
1629190435.9,286047000.7,N
1629190455.7,286046998.5,N
1629190475.5,286047001.0,N
1629190495.4,286047000.3,N
1629190515.2,286047000.2,N
1629190535.0,286047000.6,N
1629190535.9,286047000.6,N
1629190555.8,286047000.4,N
1629190575.6,286047002.1,N
1629190595.5,286047002.1,N
1629190615.3,286047001.8,N
1629190635.1,286047001.4,N
1629190655.9,286047002.6,N
1629190675.7,286047001.3,N
1629190695.5,286047004.4,Y
1629190715.4,286047004.1,P
1629190735.2,286047003.7,N
1629190755.1,286047001.5,N
1629190756.0,286047001.5,N
1629190775.8,286047004.4,Y
1629190795.6,286047000.1,P
